Theta_e
302 304 306 308 308 308 309 312 316 317 317 317 317 318 319 320 320 320 320 319 319 319 319 320 319 319 319 318 318 319 318 317 317 318 318 317 317 317 316 316 316 317 316 316 316 312 301 295 296 296 296 296 295 296 300 303 302 300 303 307 308 308 307 306 305 304 301 300 300 298 296 294 294 294 295 295 295 295 295 295 295 295 295 294 294
299 301 303 306 308 308 309 310 314 316 317 317 317 317 318 318 319 319 319 319 319 319 319 318 317 318 318 319 318 318 318 318 318 318 318 318 318 317 316 316 316 316 316 315 316 315 306 296 295 296 296 296 296 299 302 302 301 300 303 310 311 308 305 304 304 304 302 299 297 296 294 294 294 295 295 295 295 295 294 294 294 294 294 294 294
297 299 300 303 305 307 308 309 312 315 317 317 316 317 317 317 318 319 319 319 319 319 318 317 317 318 318 318 319 318 317 318 318 318 318 317 318 318 317 317 316 315 316 315 315 316 311 300 295 295 296 295 298 303 304 302 302 301 304 311 312 306 303 303 303 304 302 299 296 294 294 294 294 295 294 294 294 294 294 294 294 293 293 293 293
297 298 299 300 302 305 307 308 310 312 316 317 316 316 316 316 317 318 319 319 319 319 318 317 317 318 317 317 318 319 318 318 319 318 318 318 318 317 316 316 317 316 315 315 314 315 315 308 300 295 295 296 300 304 305 304 304 303 307 312 309 304 302 301 302 302 301 298 295 294 294 294 294 294 294 294 293 293 293 293 293 293 293 293 292
297 297 298 298 300 302 304 308 310 311 313 315 316 316 316 316 316 317 318 318 318 319 318 318 317 316 316 316 318 319 319 319 320 319 318 318 318 317 316 316 317 316 316 315 315 314 315 315 310 301 295 295 300 304 305 306 307 307 310 311 307 302 301 300 299 299 298 297 295 294 294 294 294 294 293 293 293 293 293 293 292 292 292 292 292
296 297 297 297 299 300 302 305 309 311 311 313 315 316 316 316 316 316 317 317 317 317 318 318 317 316 317 317 318 319 318 318 319 319 317 317 318 317 317 317 317 317 315 315 314 314 314 315 315 309 300 295 299 302 304 307 309 311 312 310 306 301 299 299 298 296 296 296 296 295 294 294 294 293 293 293 293 293 292 292 292 292 292 292 292
296 296 297 297 298 299 300 302 305 310 311 312 313 315 315 315 316 316 316 316 316 316 316 317 316 317 318 317 317 318 319 319 319 319 317 316 316 317 318 318 317 316 316 314 314 314 314 314 315 313 305 298 298 300 303 306 310 312 312 309 305 301 298 297 296 295 295 296 296 296 295 294 293 293 293 293 292 292 292 292 292 292 292 292 292
296 296 296 296 297 298 299 300 302 306 311 312 312 313 314 315 315 315 315 316 316 315 316 315 315 315 317 317 316 317 318 319 320 319 318 318 317 317 318 318 317 317 316 315 314 314 314 314 314 314 310 304 301 301 303 307 311 313 311 308 304 300 297 296 295 295 295 295 296 296 295 294 293 293 293 293 293 292 292 292 292 292 292 291 291
296 296 296 295 296 297 299 299 301 304 308 312 312 312 313 314 314 314 314 315 315 315 315 316 315 314 314 315 316 316 317 318 319 318 318 318 319 319 318 318 318 317 316 315 314 314 314 313 314 314 312 309 308 306 306 309 312 312 310 305 301 298 296 296 296 295 295 295 295 295 294 294 293 293 293 293 293 293 292 292 292 291 291 291 291
295 295 295 295 295 296 298 299 300 302 306 310 312 312 313 313 313 313 313 313 314 314 314 315 315 315 314 313 314 315 316 318 319 318 317 317 318 319 318 318 317 317 316 315 314 314 313 313 314 314 313 312 312 310 309 311 312 310 307 303 299 297 296 296 296 295 295 295 295 295 295 294 294 294 294 293 293 293 292 292 291 291 291 291 291
295 295 295 295 294 295 298 299 299 301 304 308 311 312 312 313 313 312 312 312 313 313 313 313 314 315 314 314 314 314 315 317 317 317 318 319 318 318 318 318 318 317 316 314 314 314 313 313 313 313 312 312 312 312 311 311 311 309 305 300 297 296 296 296 296 295 295 295 295 295 295 295 295 294 294 293 293 293 292 292 291 291 291 291 291
294 294 294 294 294 295 297 298 299 301 303 306 310 311 311 312 312 312 312 311 312 312 313 313 313 313 314 314 314 314 314 313 313 314 317 318 318 318 318 318 317 316 316 314 314 314 313 313 313 312 312 312 313 312 312 311 311 308 304 298 295 296 296 297 297 297 296 296 295 295 295 295 295 295 294 294 293 293 292 292 292 291 291 291 292
293 293 293 294 294 294 297 298 298 301 303 305 309 311 311 312 312 312 312 311 311 311 312 312 313 313 313 314 315 315 315 313 312 313 315 316 316 317 318 318 317 317 316 314 313 314 313 313 313 312 311 312 313 313 312 312 311 308 303 297 295 295 295 296 297 298 298 297 296 296 296 296 296 295 295 295 294 293 292 292 292 291 291 291 291
291 291 292 293 293 294 297 298 298 300 302 304 308 310 310 311 311 311 311 311 311 310 310 311 312 312 313 314 315 316 316 315 315 315 316 316 316 316 317 317 317 317 316 314 313 313 313 313 312 312 312 312 312 312 312 312 310 307 302 297 295 295 295 295 295 296 297 297 297 297 296 296 296 296 295 295 294 294 293 293 292 292 291 291 291
290 291 292 293 293 294 296 298 299 301 302 304 307 310 310 310 311 311 311 311 311 310 309 310 310 311 312 312 313 315 316 316 316 316 317 317 316 316 316 316 316 316 316 315 314 313 313 313 312 312 312 312 312 312 312 311 309 305 300 296 294 294 294 294 294 295 295 296 296 296 296 296 295 295 294 293 293 293 293 292 292 291 291 291 290
291 292 293 292 293 294 296 297 299 300 302 303 306 309 310 310 310 310 310 310 310 310 310 309 309 310 311 311 312 313 314 314 314 315 315 315 315 315 315 315 315 315 315 314 313 313 312 312 312 312 312 312 312 312 311 310 307 303 298 295 294 294 294 294 294 294 294 294 294 295 294 294 294 293 293 292 292 292 291 291 291 291 291 291 290
292 292 292 292 294 294 295 297 299 300 301 302 305 308 309 310 310 310 310 310 309 309 310 309 309 310 310 311 311 312 312 312 312 312 312 313 314 314 314 314 314 314 314 314 313 312 312 312 312 312 312 312 311 310 309 308 305 300 297 295 294 294 294 294 294 293 293 293 293 293 293 293 292 292 292 292 292 292 291 291 291 291 291 291 291
292 291 292 293 294 294 295 296 298 300 300 301 304 308 309 309 310 310 310 310 309 309 309 309 309 309 309 309 310 310 311 311 311 312 312 313 313 313 313 312 312 312 312 312 312 311 311 311 311 311 312 312 310 307 307 307 303 298 296 295 294 294 294 294 294 293 293 292 292 292 292 292 292 292 292 292 292 292 292 292 292 291 291 291 291
291 291 293 294 293 293 295 296 298 299 300 301 303 307 308 309 309 310 309 310 309 309 309 309 309 309 309 309 309 309 310 310 311 311 312 312 312 311 311 311 310 310 310 310 310 310 310 311 311 311 312 310 307 305 306 304 300 297 295 295 294 295 295 295 294 293 293 292 292 292 292 292 292 292 292 292 292 292 292 292 291 291 291 291 291
289 291 293 293 293 294 295 296 297 299 300 300 302 305 308 308 309 309 309 309 309 309 308 308 308 308 308 308 309 309 309 310 311 311 311 311 310 310 310 309 309 309 309 310 310 310 310 310 310 311 311 308 305 305 305 301 297 296 295 294 295 295 295 294 294 293 293 293 292 292 292 292 292 292 292 292 292 292 291 291 291 291 291 291 291
289 292 293 292 293 294 296 297 297 298 300 301 301 304 307 308 308 308 308 308 308 308 308 308 308 307 308 308 308 309 309 310 310 310 310 309 309 309 309 308 308 309 309 309 309 309 310 310 310 310 309 306 304 304 302 298 296 295 295 294 295 295 294 294 293 293 292 292 292 292 292 292 291 291 292 292 292 291 291 291 291 291 291 291 291
290 292 292 292 294 295 296 297 297 298 300 301 300 302 305 307 308 308 308 307 307 307 307 307 307 307 307 307 308 308 309 309 309 309 308 308 308 308 308 308 308 308 309 309 309 309 309 310 310 309 306 304 304 303 300 296 295 295 294 294 294 294 294 293 293 293 292 292 292 292 292 291 291 291 292 292 291 291 291 291 291 291 291 291 291
290 291 292 293 295 295 296 297 297 298 300 300 300 301 303 305 306 307 307 307 306 306 306 306 306 306 306 306 307 307 308 308 308 308 307 307 307 307 307 307 307 308 309 309 309 309 309 310 309 307 304 303 303 301 298 296 295 294 294 294 293 293 293 293 293 292 292 292 292 292 292 292 292 292 292 291 291 291 291 291 291 291 291 291 290
290 291 293 295 295 295 296 297 297 298 300 300 300 300 301 303 305 305 306 306 306 305 305 305 305 305 305 305 305 306 307 307 307 307 307 307 307 307 307 307 307 308 308 309 309 309 309 309 307 305 303 303 301 299 296 296 295 294 293 293 292 292 292 292 292 292 292 292 291 291 292 292 292 291 291 291 291 291 291 291 291 291 290 290 289
292 293 294 295 295 295 296 297 297 298 299 300 300 300 301 302 303 304 304 305 304 304 304 304 304 304 304 304 304 305 306 307 307 306 306 306 306 307 307 307 307 308 308 308 309 309 309 308 306 304 303 302 299 297 296 295 294 294 293 292 292 292 291 292 292 292 292 291 291 291 292 292 291 291 291 291 291 291 291 290 290 290 290 289 289
293 294 295 295 296 296 296 297 297 298 299 299 300 301 301 301 302 303 303 303 303 304 304 303 303 303 303 303 303 304 305 306 306 306 306 306 305 306 307 307 307 308 308 308 309 309 309 307 304 302 301 300 298 296 296 295 294 294 293 292 292 291 291 291 291 291 292 291 291 291 291 291 291 291 291 291 291 291 290 290 290 290 289 289 288
294 294 295 296 296 296 296 297 297 298 299 299 299 300 301 301 301 302 302 302 302 303 303 303 302 302 302 302 302 303 304 305 306 306 306 305 304 305 306 307 307 308 308 308 309 309 308 305 302 301 300 298 297 296 295 294 294 293 293 292 292 291 291 292 292 291 291 291 291 291 291 291 291 291 291 291 291 290 290 290 289 289 289 288 288
294 294 295 295 295 296 296 296 297 298 299 299 299 299 300 301 301 301 302 302 302 302 302 302 302 302 301 301 301 301 303 305 306 307 306 305 304 304 306 307 308 308 308 308 308 306 305 302 301 300 299 297 296 296 295 294 294 293 293 292 292 292 291 292 291 291 291 291 290 290 290 290 291 291 291 291 290 290 290 289 289 289 288 288 288
294 294 294 295 295 296 296 296 297 298 299 299 299 299 301 301 301 301 301 302 302 302 302 302 302 302 301 301 301 302 303 305 306 307 307 306 306 306 306 307 308 308 308 307 305 303 301 300 300 299 298 297 296 295 295 294 294 293 293 292 292 292 291 291 291 291 291 290 289 290 290 290 290 290 290 290 290 289 289 289 288 288 288 287 288
294 294 294 294 295 296 296 296 297 298 299 299 298 299 300 301 301 301 301 301 302 302 303 303 302 302 302 302 303 303 304 306 307 307 307 307 306 306 305 305 305 305 305 304 302 301 300 300 299 298 297 296 296 295 294 294 293 293 293 292 292 291 291 291 291 291 290 289 289 290 290 290 290 290 290 290 289 289 289 288 288 288 288 288 288
293 293 294 294 295 295 295 296 297 298 299 299 298 298 299 299 300 301 301 301 302 302 302 302 303 303 303 303 303 303 304 305 307 307 307 307 306 305 304 302 301 301 301 301 300 299 299 299 298 297 296 296 295 295 294 294 293 293 292 292 291 291 291 290 290 290 290 289 289 289 290 290 290 290 289 289 289 289 288 288 287 288 288 288 288
293 294 295 296 296 296 296 297 297 298 298 298 298 298 298 298 299 299 300 301 301 302 302 302 301 302 302 302 302 302 302 303 304 305 305 305 306 305 303 302 300 300 300 299 299 299 299 299 297 296 296 295 295 294 294 294 294 293 292 291 291 291 291 291 291 290 289 289 289 289 289 289 289 289 289 289 289 288 288 287 287 288 288 287 288
294 295 296 297 297 297 297 297 297 297 298 298 298 298 298 298 298 298 298 299 299 300 300 300 300 300 300 301 301 302 301 301 302 303 304 304 304 304 302 300 299 299 299 298 298 298 299 298 297 296 296 295 295 294 294 294 293 292 292 291 291 291 291 290 290 290 289 289 288 289 289 289 289 290 289 289 289 288 287 287 287 287 287 287 287
295 296 297 297 297 297 297 297 297 297 298 298 298 298 298 298 298 298 298 297 297 298 298 298 298 299 299 300 300 300 300 300 300 301 302 303 304 303 300 298 297 298 298 298 298 298 298 297 296 296 295 295 295 294 294 293 292 292 291 291 291 291 291 290 290 289 289 288 288 289 290 291 291 290 290 289 288 287 287 287 287 287 287 287 287
296 296 297 296 296 296 296 296 297 297 297 297 297 297 297 298 298 298 298 297 297 297 297 297 297 297 297 298 298 298 298 298 299 299 300 301 302 301 298 296 296 296 296 296 296 296 296 296 295 295 295 295 294 294 293 292 292 291 291 291 291 290 290 290 289 289 288 289 290 291 292 292 291 290 289 288 287 287 287 287 286 287 287 287 287
295 295 296 296 295 296 296 296 296 297 297 296 296 296 297 297 297 297 297 297 297 296 296 297 296 296 296 296 296 296 296 296 297 297 297 298 299 299 298 297 296 296 296 296 295 295 294 294 294 294 294 294 293 293 293 292 292 291 291 291 291 291 290 290 289 289 290 291 292 293 293 292 290 289 288 287 287 286 286 286 286 286 287 287 287
293 294 294 295 295 295 295 296 296 296 296 296 296 296 296 296 296 296 296 296 296 295 295 295 295 295 295 294 294 294 294 294 294 295 295 295 296 297 297 297 296 296 296 296 295 294 293 293 293 293 293 293 293 292 292 292 292 291 291 291 291 291 290 290 290 291 293 293 293 293 292 290 289 288 287 287 286 285 285 285 285 285 286 286 285
292 292 293 294 294 294 295 295 295 295 295 295 295 296 295 295 295 295 295 295 295 295 294 295 295 295 294 293 293 293 293 293 293 293 293 293 294 294 295 295 295 296 296 296 295 294 293 293 293 293 293 292 292 292 292 292 291 291 291 291 291 291 291 291 292 293 294 294 294 292 291 289 288 287 286 285 285 285 285 285 284 284 284 284 284
290 291 292 292 293 293 294 294 294 294 295 294 295 295 295 294 294 294 294 294 294 294 294 294 294 294 294 293 293 292 292 292 292 292 292 292 293 293 293 293 293 294 295 295 295 294 294 293 293 293 292 292 292 292 292 292 292 291 291 291 291 291 292 293 293 294 294 294 292 291 289 288 287 287 286 285 285 285 285 284 284 283 283 283 284
289 289 290 291 291 292 292 293 293 293 293 293 293 294 294 294 294 293 293 293 293 293 293 293 293 293 293 293 293 293 292 292 292 292 291 292 292 292 293 293 293 293 293 294 294 294 293 293 293 292 292 292 292 292 292 292 291 291 291 291 291 292 292 293 294 294 294 292 290 289 289 288 288 287 287 286 285 285 284 283 283 283 283 283 283
287 288 288 289 290 290 291 291 290 291 291 291 292 292 292 292 292 292 292 292 292 292 292 292 292 292 292 292 293 293 293 293 292 292 292 291 292 292 292 292 292 292 292 292 292 292 292 292 291 292 292 292 292 292 292 291 291 291 291 291 292 292 293 293 293 292 291 290 289 289 289 288 288 287 287 286 284 284 283 282 282 282 282 283 282
286 286 286 287 288 288 288 288 288 289 290 290 290 290 290 290 291 291 291 291 291 291 291 291 291 291 291 291 292 292 292 292 292 292 291 291 291 292 292 292 292 292 292 292 291 291 291 291 291 291 291 291 291 291 291 291 291 291 291 292 292 293 292 292 291 290 289 289 289 288 288 288 287 286 285 284 283 283 283 283 282 282 282 282 282
284 284 284 285 285 285 286 287 287 287 287 288 288 288 289 289 289 289 289 289 289 290 290 290 290 290 290 290 291 291 291 291 291 291 291 291 291 291 291 291 292 292 291 291 291 291 291 291 290 290 290 290 290 291 291 291 291 292 292 292 292 291 290 289 289 289 289 289 288 288 287 287 285 284 284 283 283 283 283 283 282 282 282 281 281
283 282 283 283 283 284 284 285 285 285 285 286 286 286 287 288 288 288 288 288 288 288 289 288 289 289 289 289 289 290 290 290 290 290 290 290 290 290 290 290 290 291 291 291 291 291 291 291 290 290 290 290 290 290 291 291 292 291 291 290 290 289 289 289 289 289 288 288 287 287 286 285 284 284 283 283 283 283 282 282 282 281 281 280 280
281 281 281 281 281 282 282 283 283 283 284 284 284 284 285 286 286 286 286 286 286 287 287 287 287 288 288 288 288 288 288 288 288 288 288 288 288 288 289 289 289 289 289 289 290 290 290 290 290 290 290 290 290 290 290 290 290 289 288 288 287 287 287 287 287 287 286 286 285 284 284 283 283 283 282 282 282 282 281 281 281 280 280 279 279
279 279 279 279 279 279 280 280 281 281 282 282 282 282 282 283 283 283 283 283 284 284 285 285 285 285 285 285 286 286 286 286 286 286 286 286 287 287 287 287 287 288 288 288 288 288 288 288 288 288 289 289 289 289 288 288 287 287 286 286 285 285 285 285 284 284 283 283 282 282 282 281 281 281 281 280 280 280 279 279 279 278 278 277 277
278 278 278 277 277 277 278 278 279 279 279 279 279 279 279 279 280 280 280 280 281 281 282 282 282 282 282 282 283 282 283 283 283 283 283 283 283 284 284 285 285 285 286 286 286 286 286 286 286 286 286 286 286 285 285 285 285 284 284 284 284 284 283 283 282 282 281 281 280 280 280 280 280 279 279 279 278 278 278 277 277 277 276 276 275
276 276 277 277 277 277 277 277 277 277 277 277 277 277 277 277 278 278 277 278 278 278 279 279 279 279 279 279 279 279 280 280 280 280 280 280 280 281 281 282 282 282 282 283 283 283 283 283 283 283 283 283 283 283 283 283 283 283 282 282 282 281 281 280 280 280 279 279 279 279 279 278 278 278 277 277 277 276 276 276 275 275 275 274 273
273 273 274 274 274 275 275 275 275 276 276 276 276 276 276 276 276 276 276 276 276 276 276 277 277 277 277 277 277 277 278 278 278 278 278 278 278 279 279 279 280 280 280 280 280 280 280 280 280 280 281 281 281 281 281 281 280 280 280 280 279 279 279 279 279 278 278 278 278 277 277 277 276 276 276 275 275 275 274 274 273 273 273 272 272
272 272 272 272 272 272 272 273 273 273 274 274 274 274 275 275 275 275 275 275 275 275 275 275 276 276 276 276 276 276 277 277 277 277 277 277 277 277 277 278 278 278 278 279 279 279 279 279 279 279 279 279 279 279 279 279 278 278 278 278 278 278 277 277 277 277 277 276 276 276 275 275 274 274 273 273 273 272 272 272 272 271 271 271 270
270 270 270 270 270 270 271 271 271 270 271 271 271 272 272 272 272 272 273 273 273 273 273 273 274 274 275 275 275 275 276 276 276 276 276 276 276 276 276 276 277 277 277 277 277 277 277 277 277 277 277 277 277 277 277 277 277 276 276 276 276 276 275 275 275 275 275 274 274 274 273 273 273 272 272 272 271 271 271 271 270 270 270 269 269
Wind_Speed
39 34 34 33 31 30 32 42 48 52 55 57 57 57 55 55 55 56 58 60 62 62 61 60 59 57 55 55 55 52 52 53 53 51 48 46 44 43 40 38 37 36 35 35 34 34 35 37 38 38 37 37 37 37 35 33 33 33 32 32 31 33 35 37 39 41 41 38 36 35 34 33 32 32 31 30 28 27 25 24 23 22 21 19 18
46 39 36 33 32 32 31 35 43 49 53 55 57 57 56 56 56 56 56 59 61 62 61 59 58 58 57 58 58 55 52 53 54 54 51 48 48 46 43 41 41 39 37 35 34 34 35 37 38 39 38 38 38 37 35 35 35 34 35 35 34 34 36 38 39 41 43 40 37 36 35 34 34 33 32 30 28 26 25 24 23 21 20 19 17
50 45 40 35 30 31 32 33 37 44 51 55 56 57 55 55 57 58 59 60 60 61 61 59 59 59 56 58 60 59 55 54 55 56 53 50 49 47 43 43 43 41 38 36 36 36 36 37 38 39 39 40 39 37 36 35 36 36 36 36 36 36 37 38 39 41 44 43 39 37 37 36 34 33 32 29 28 27 26 24 23 21 20 18 17
48 47 45 41 31 27 29 34 37 39 44 50 54 57 57 56 56 56 57 59 60 61 61 59 59 58 56 57 60 60 60 58 56 56 54 51 49 47 44 44 45 43 39 38 39 39 38 38 39 39 40 42 41 39 37 36 36 36 37 36 36 37 38 38 38 38 42 44 41 38 38 36 35 33 32 30 29 28 26 24 22 21 19 18 17
46 45 47 46 38 29 27 32 38 40 40 45 49 53 56 58 57 56 55 56 58 59 60 61 61 60 59 58 59 62 64 63 58 54 53 51 48 47 48 47 48 47 43 41 42 41 40 40 40 40 41 43 43 41 39 38 37 37 37 36 36 38 39 39 38 38 40 43 42 40 38 36 35 34 32 31 30 29 26 24 23 21 20 18 17
46 45 46 48 46 36 30 30 37 40 40 43 46 49 53 55 57 57 57 57 57 58 59 61 63 63 61 58 58 62 64 62 60 56 53 51 49 50 52 52 51 49 45 43 41 40 40 42 42 42 43 44 45 43 41 40 40 39 38 38 38 40 40 39 38 39 40 41 42 41 40 37 36 35 34 31 30 29 27 25 24 22 21 19 17
46 45 46 48 48 43 36 31 32 39 41 42 44 47 50 53 54 55 56 56 57 59 60 60 61 63 61 56 56 61 62 60 59 58 56 54 52 53 55 54 51 49 46 44 40 37 40 43 43 43 45 45 46 45 44 43 42 40 39 40 41 41 40 39 39 39 40 41 41 41 41 39 37 35 34 32 30 28 27 26 25 23 21 19 17
45 45 47 48 48 47 42 35 31 36 42 42 43 46 48 51 53 54 55 55 55 58 62 63 62 61 61 61 62 65 66 64 60 58 58 56 54 54 56 55 52 50 49 46 41 38 40 44 43 44 45 45 45 45 45 44 42 41 40 41 43 44 43 42 41 40 40 41 41 41 41 40 38 35 34 33 32 30 28 26 25 23 21 19 17
45 45 47 49 49 48 47 41 33 32 39 42 43 45 47 50 52 53 56 58 57 57 59 62 63 62 61 62 64 66 67 65 60 58 59 59 57 56 55 55 55 54 52 48 43 40 41 43 43 44 45 44 43 44 44 43 43 43 45 44 46 48 46 45 45 43 42 42 41 41 40 39 38 37 35 34 32 30 28 26 24 22 20 18 17
45 46 47 49 50 49 48 45 38 30 35 41 44 46 48 51 53 54 56 57 58 58 59 59 62 64 63 61 60 61 64 62 56 56 60 60 58 57 57 56 55 55 53 49 45 42 41 43 44 45 45 43 41 42 43 43 43 43 45 47 48 50 50 49 49 46 45 45 44 42 41 40 39 37 36 33 30 29 28 26 24 23 21 19 18
44 46 48 49 51 50 47 47 42 31 31 40 45 47 49 52 53 54 55 55 55 57 60 61 61 62 66 66 62 60 62 61 55 54 59 60 57 57 57 56 55 57 55 51 46 43 42 44 46 45 45 43 41 41 42 43 43 42 43 46 49 51 52 52 52 49 47 47 46 44 42 40 38 36 35 33 31 30 29 26 25 23 22 21 20
45 48 49 50 51 50 46 46 45 33 29 38 45 48 49 51 52 52 54 55 54 53 57 62 63 63 64 67 67 64 61 62 60 58 60 60 58 59 58 55 54 56 57 53 48 45 44 45 47 47 47 45 43 42 43 43 43 42 43 46 49 50 51 50 49 48 47 47 47 45 43 39 38 38 37 35 34 32 30 28 26 24 23 22 21
47 50 51 50 50 49 45 44 46 34 28 35 42 46 48 51 52 52 53 55 54 53 53 56 61 63 64 65 67 64 60 61 64 64 62 59 59 62 62 57 53 56 58 56 51 48 47 47 49 50 48 47 45 45 45 45 44 44 44 46 48 50 50 49 46 44 44 44 44 44 42 40 39 39 38 36 36 35 33 31 29 26 24 22 20
53 53 52 49 48 47 44 43 45 34 26 32 40 45 46 49 51 51 53 54 55 56 55 54 55 58 61 63 64 64 61 62 65 67 64 59 57 61 61 56 52 55 59 58 54 50 48 48 52 53 50 48 48 48 48 47 47 47 46 47 50 51 51 50 48 46 43 42 42 40 39 38 38 38 37 37 36 36 35 33 30 27 24 21 20
56 50 48 47 45 45 42 42 43 32 24 31 40 44 45 47 50 51 52 53 54 55 55 55 56 56 57 58 59 60 59 58 59 60 61 59 57 59 59 55 53 55 58 58 56 52 48 48 53 55 52 51 51 50 50 50 49 50 50 50 52 52 52 51 48 46 44 42 40 39 37 37 36 35 36 37 35 33 31 29 27 25 24 23 22
48 44 44 45 43 42 40 41 41 29 23 30 40 44 43 45 49 51 52 52 52 53 54 54 56 57 58 59 59 59 58 57 57 57 57 58 57 57 57 56 56 58 59 60 58 54 49 49 54 55 54 53 53 52 52 52 52 52 52 52 53 52 52 50 47 45 43 40 38 37 35 35 34 33 34 34 33 31 29 28 28 27 26 24 21
42 42 44 43 40 40 39 39 38 28 22 31 40 44 43 44 47 49 52 52 51 53 54 53 53 55 57 59 60 60 59 58 58 59 60 60 59 58 58 58 58 59 60 61 59 54 50 51 55 56 55 54 54 52 52 53 53 54 54 54 54 54 52 50 48 46 43 40 37 36 34 33 33 33 34 34 33 33 32 32 31 28 26 24 21
41 43 42 39 38 39 38 37 35 27 23 31 40 44 43 44 46 47 49 51 51 51 52 52 52 53 55 57 58 58 58 58 58 59 60 60 59 58 58 58 58 59 60 60 57 53 51 53 56 57 55 54 53 52 53 54 55 56 56 56 56 56 54 52 50 48 44 41 39 39 38 36 35 36 37 36 36 35 34 32 29 27 26 24 21
43 42 39 38 37 37 36 35 33 27 22 30 39 44 43 44 45 46 47 48 48 49 49 50 52 53 54 55 55 56 57 58 58 59 59 58 58 58 58 58 59 59 60 59 55 52 52 55 56 56 55 54 52 52 54 55 56 57 57 58 58 57 55 53 52 50 48 47 45 44 43 41 40 40 39 38 37 36 34 32 30 28 27 24 22
44 39 38 38 36 34 34 33 31 27 22 27 37 43 44 43 45 46 46 47 47 47 48 49 51 52 53 54 54 55 56 58 58 58 57 57 58 58 58 59 60 61 61 60 56 55 56 57 56 56 55 54 52 53 54 56 57 58 58 59 59 58 57 55 53 52 51 51 50 48 46 45 42 41 40 39 38 37 35 33 31 29 27 25 24
41 40 40 38 34 32 32 31 30 27 21 23 33 41 44 44 45 46 46 46 47 48 48 49 50 51 52 53 54 55 57 58 58 57 57 57 58 58 59 60 60 62 62 60 59 59 59 59 58 58 56 54 53 54 56 57 58 59 60 60 60 59 58 56 54 54 53 53 51 49 47 44 42 41 41 41 40 38 35 33 31 29 27 25 25
38 40 39 35 32 31 32 30 29 27 20 20 28 37 43 45 46 46 46 46 47 48 48 49 50 51 51 52 53 54 54 55 55 55 56 57 57 57 58 58 59 60 60 60 60 60 61 61 61 59 57 55 55 56 58 59 59 60 60 61 60 60 58 57 56 56 55 53 52 50 47 44 43 43 43 41 40 38 35 33 30 28 26 24 24
37 38 34 31 30 31 31 31 29 27 21 20 25 33 41 45 47 47 47 48 48 48 49 49 50 51 52 53 53 53 53 54 54 55 55 55 55 55 55 56 58 59 59 60 60 61 61 62 61 59 57 56 57 58 59 59 60 61 61 61 61 60 58 57 57 57 56 54 52 50 48 46 45 44 43 41 39 36 34 32 30 28 25 23 23
29 30 27 27 30 31 31 31 30 27 23 20 24 30 37 43 46 47 48 48 48 49 49 50 51 52 52 53 54 54 54 55 54 54 54 53 53 53 53 55 56 57 58 59 60 60 60 61 60 58 57 57 58 59 60 60 61 62 62 61 60 60 59 58 57 56 55 54 52 50 48 47 45 44 42 39 36 34 32 31 29 27 25 24 23
23 24 25 28 31 32 32 31 31 29 24 22 25 29 35 42 46 47 48 49 49 49 50 50 51 51 51 52 53 54 55 55 55 54 53 51 51 51 52 54 55 55 56 57 58 58 58 58 57 56 56 58 59 60 59 60 61 61 61 60 60 59 59 58 57 56 55 54 53 50 47 45 44 41 38 36 34 32 31 29 28 27 26 25 24
26 26 27 29 31 32 32 32 33 31 26 25 27 29 34 40 45 47 48 49 50 50 50 50 51 51 51 51 52 53 54 55 55 54 52 50 50 51 52 53 53 53 54 54 55 55 55 55 54 55 56 58 60 61 61 61 60 60 59 59 59 59 58 58 57 56 54 53 51 48 45 43 42 39 37 35 34 32 30 29 28 27 26 26 25
28 28 29 30 31 32 33 34 35 33 28 27 29 31 34 38 43 48 49 50 50 50 50 50 51 51 51 50 51 52 54 56 56 55 54 52 52 52 52 52 53 53 53 54 54 53 53 52 52 54 56 57 58 59 60 60 59 58 58 58 58 57 57 57 57 56 53 50 48 45 43 42 42 40 39 37 34 32 31 30 29 28 27 27 27
29 31 31 32 33 34 35 36 36 33 29 29 31 34 37 39 43 48 50 50 51 51 51 51 51 52 51 50 50 51 54 57 58 58 57 56 55 54 54 54 55 56 56 56 54 52 51 50 51 53 54 55 55 55 55 56 57 57 57 57 56 55 55 56 56 55 51 48 46 46 44 43 42 41 39 37 35 34 32 31 30 29 28 29 30
29 31 32 34 35 35 36 36 35 32 30 31 33 36 39 40 43 46 48 48 49 49 50 50 51 51 51 51 52 54 57 59 60 58 57 57 57 57 58 59 59 60 59 58 56 53 52 51 53 55 55 55 55 55 55 55 55 56 56 56 55 55 56 57 58 56 52 49 48 47 46 44 43 41 39 37 35 34 32 32 31 31 31 32 31
28 31 32 34 34 34 34 34 32 30 30 31 33 36 39 39 39 41 44 46 46 47 48 48 49 49 50 52 54 54 55 57 56 55 54 56 57 58 59 60 60 60 60 59 56 55 54 53 54 56 58 58 58 58 57 56 56 56 56 56 56 57 58 59 59 56 53 50 49 47 46 44 42 40 39 37 35 34 33 33 33 32 33 33 32
28 31 31 31 31 30 30 30 29 29 30 31 33 37 39 38 37 37 39 40 41 44 47 47 48 49 49 51 51 51 51 53 53 53 55 57 58 58 58 58 58 59 60 59 56 55 55 56 56 57 59 59 60 59 58 57 57 57 57 57 57 58 59 59 57 55 52 51 49 46 45 43 41 40 38 36 35 34 35 35 35 35 35 35 34
26 28 28 28 27 25 24 25 27 28 30 31 33 37 39 38 38 38 38 38 39 41 44 46 47 47 47 48 48 49 50 50 50 51 54 57 58 59 57 56 57 58 58 57 56 56 57 58 59 59 59 60 60 60 59 59 58 58 59 59 59 60 60 59 57 55 53 51 48 46 44 42 40 38 37 36 36 36 37 37 37 37 37 37 35
21 23 23 22 20 19 20 22 25 28 30 31 34 36 38 38 38 38 38 39 38 39 42 44 45 45 44 45 46 46 47 48 48 49 51 53 54 54 54 55 57 59 58 57 57 58 58 59 60 61 61 61 61 60 60 60 60 60 60 61 62 61 60 58 56 54 52 49 46 44 42 40 38 37 37 38 39 39 40 40 39 39 38 38 36
13 15 15 13 13 14 16 19 23 26 29 31 33 36 37 37 37 37 38 38 36 35 37 39 41 41 40 41 41 42 43 44 45 45 46 49 51 52 52 52 53 54 56 57 57 58 59 59 59 60 60 60 59 60 60 60 60 61 61 60 60 59 59 57 54 52 50 47 44 41 39 38 38 39 40 41 42 42 42 42 41 40 40 39 38
10 8 6 6 7 10 12 16 19 23 26 29 31 33 33 34 35 36 37 37 35 33 33 34 35 36 35 35 36 38 39 40 40 40 40 44 48 50 51 52 51 51 53 54 54 55 56 58 58 58 58 58 59 59 60 60 60 60 60 60 59 58 56 54 52 50 47 44 41 40 40 40 40 41 42 43 43 43 43 43 43 42 42 41 41
12 10 7 5 3 5 8 11 14 19 23 25 27 28 29 30 31 32 33 33 33 32 31 32 32 32 31 29 29 31 34 35 36 36 37 41 47 51 53 55 56 55 55 55 54 54 54 55 56 57 57 57 58 58 58 59 59 59 59 58 58 56 53 50 48 46 43 41 41 42 42 41 41 42 43 44 44 44 44 43 43 43 43 43 42
16 13 9 5 2 3 6 8 11 15 18 20 21 23 23 24 26 26 27 28 28 27 26 28 29 29 29 26 24 26 29 29 29 30 33 38 45 50 54 56 57 58 57 57 55 55 54 53 53 54 54 55 55 55 55 56 56 56 56 55 54 52 49 46 44 42 41 42 43 44 43 42 43 44 44 44 44 44 43 43 44 44 44 43 42
20 19 15 11 9 8 9 9 9 10 12 13 15 17 18 19 19 19 21 22 22 21 21 21 23 26 27 25 23 23 25 25 25 27 32 39 45 48 49 51 53 55 56 56 55 54 54 53 51 51 52 52 52 52 52 52 52 52 52 51 49 47 45 43 42 41 41 43 44 44 43 43 44 44 43 42 43 43 44 44 44 44 44 43 43
25 23 20 17 16 16 15 14 12 11 11 12 12 13 13 14 14 15 16 17 17 16 16 17 18 22 24 25 24 23 24 24 25 29 34 40 43 45 44 44 45 47 49 51 52 52 52 52 51 51 50 49 49 49 48 48 48 48 47 47 46 45 43 41 41 42 43 44 44 42 41 41 41 41 41 41 42 43 44 45 45 44 44 43 43
30 29 26 24 23 22 21 20 19 17 16 15 14 13 13 13 13 13 13 14 14 13 14 15 16 18 20 22 23 24 25 25 25 28 33 37 40 42 42 41 41 42 43 45 47 49 49 49 50 50 49 48 47 46 45 45 45 44 44 44 43 42 41 41 43 44 44 42 41 39 38 39 39 40 40 41 42 43 44 44 44 43 42 41 41
33 34 32 29 28 27 26 26 26 24 22 20 19 18 17 16 15 14 14 14 14 14 14 15 15 15 15 16 18 20 22 24 25 26 29 33 37 40 41 38 36 36 38 39 42 44 45 45 46 47 48 48 46 45 44 43 43 42 41 40 39 40 41 42 41 40 39 38 37 37 37 38 38 38 39 39 40 40 41 41 41 40 40 40 41
37 38 36 34 33 31 31 31 29 27 25 25 24 23 22 21 19 18 18 18 17 16 15 16 16 15 13 13 14 14 17 20 23 24 26 29 33 37 39 36 32 31 31 32 34 37 39 40 40 41 42 43 43 43 42 41 40 38 37 38 39 40 40 39 37 37 37 37 37 38 38 37 36 36 36 36 36 37 37 38 38 39 40 41 41
40 40 39 37 36 36 34 32 31 30 29 28 27 26 24 23 22 21 20 20 19 17 17 18 17 17 16 15 14 14 17 20 22 24 26 29 31 34 37 36 34 32 30 30 30 32 33 34 34 34 34 35 36 37 37 36 36 36 37 38 38 37 36 36 36 37 38 38 38 37 37 36 35 34 35 35 35 36 36 37 38 39 39 40 40
43 42 41 39 38 37 36 34 34 34 32 29 29 28 26 24 23 22 21 21 20 19 19 19 17 17 17 16 15 16 19 21 23 24 26 27 29 30 31 31 31 31 29 29 29 29 30 31 32 33 33 34 34 34 34 35 34 34 34 34 34 34 34 35 36 37 36 36 35 35 33 33 33 34 34 35 35 36 36 37 38 38 38 39 39
46 45 43 42 41 40 38 37 35 34 32 31 31 30 28 26 26 25 24 23 22 20 19 19 18 17 17 17 17 18 19 20 20 21 21 22 23 23 23 24 24 24 24 24 24 25 26 27 28 30 31 32 32 33 32 32 31 30 30 30 30 31 32 32 31 30 30 29 29 29 30 31 32 33 34 34 34 35 35 36 36 36 37 37 37
47 46 45 45 43 42 42 40 38 36 36 35 35 34 32 31 30 30 29 27 25 24 23 22 21 21 21 20 20 19 19 19 19 18 17 17 17 17 17 18 18 19 19 19 20 21 22 23 25 26 28 29 30 30 30 30 29 29 28 28 27 27 26 25 24 24 24 25 27 28 29 30 31 31 31 32 31 32 33 33 33 34 34 34 34
45 45 45 44 44 43 42 41 40 40 39 38 38 38 37 36 34 34 33 31 29 28 27 26 26 26 25 24 24 23 21 20 20 19 18 17 16 15 14 15 15 15 16 17 17 18 19 20 21 23 24 24 25 25 25 25 25 24 24 24 24 24 25 24 24 25 25 26 27 28 28 28 28 29 29 29 29 30 31 31 32 32 32 32 32
43 43 43 42 42 42 42 41 40 40 40 39 39 38 38 36 36 35 35 34 32 31 30 30 29 29 28 27 27 26 24 23 22 21 20 18 17 16 14 14 14 14 14 15 15 15 16 16 16 17 17 18 18 19 19 20 20 21 21 22 23 23 23 23 23 24 25 25 25 26 26 27 27 27 28 28 29 29 30 30 31 31 30 30 29
40 40 40 41 41 41 40 39 39 39 38 37 37 37 36 35 35 34 34 33 32 31 30 30 29 29 28 27 26 25 23 22 22 20 19 18 17 15 14 13 13 12 11 12 12 12 12 12 12 12 12 13 13 14 15 16 17 18 18 19 19 20 20 21 22 23 24 24 25 26 26 26 27 27 27 27 27 28 28 28 29 28 28 28 28
36 37 37 38 38 38 37 37 37 36 35 35 35 35 34 34 33 32 32 31 30 29 28 27 26 25 24 23 22 21 20 19 18 17 16 15 14 12 11 10 9 8 8 8 8 8 8 8 8 9 10 11 11 13 14 15 15 16 17 18 18 19 20 21 22 23 24 25 25 26 26 26 26 26 26 26 26 27 27 27 27 27 27 28 28
34 34 34 35 34 34 34 34 35 35 34 34 34 33 32 32 32 31 30 29 29 28 27 25 24 23 22 21 20 19 17 16 15 14 13 12 10 9 8 7 6 5 4 3 3 3 3 4 5 6 8 9 10 12 13 14 15 15 16 17 18 19 20 20 22 23 24 24 24 25 25 25 25 25 25 26 26 26 26 26 27 27 27 27 27
Wind_Direction
337 331 320 301 294 296 275 251 239 233 228 224 223 223 220 218 217 215 214 215 216 217 216 216 216 215 213 211 214 218 217 209 203 204 206 206 205 206 206 205 206 208 212 214 214 213 213 212 210 208 204 203 205 207 209 209 205 205 204 205 210 213 214 212 198 180 177 184 186 184 183 183 182 182 183 183 183 183 183 184 186 189 191 192 192
340 336 331 318 301 299 292 267 246 234 229 225 223 224 224 223 220 216 214 213 214 217 217 218 219 219 218 215 212 213 217 217 210 206 207 207 206 208 209 207 205 205 208 213 215 214 213 213 212 210 207 205 206 208 209 209 206 206 207 206 207 208 209 208 199 184 177 181 185 185 183 183 183 182 182 184 184 185 186 187 189 190 189 188 190
338 337 335 331 317 305 298 283 259 239 228 226 226 224 224 224 222 218 217 216 217 220 222 222 220 218 219 221 218 212 212 218 216 211 209 208 207 210 213 212 207 204 207 215 219 217 213 213 213 212 209 207 207 209 210 209 209 207 208 208 205 204 205 206 202 190 181 180 184 185 183 183 184 184 183 184 186 187 188 188 186 185 183 183 186
334 334 333 334 330 314 301 286 269 250 232 222 222 223 223 224 224 220 217 216 215 217 220 220 219 219 221 223 223 218 214 215 216 215 212 208 208 213 216 214 210 207 210 215 219 218 215 214 213 212 211 208 207 209 210 210 210 209 208 207 203 201 202 203 203 198 188 182 182 184 184 184 184 186 186 186 188 189 186 184 182 179 179 181 184
330 329 329 332 334 328 312 287 266 256 245 229 220 219 219 221 223 223 220 218 215 213 214 216 217 221 223 222 223 223 219 214 212 215 216 211 211 219 220 216 213 211 211 213 215 218 218 216 215 214 211 209 208 208 210 211 211 209 208 205 200 199 201 201 201 201 194 186 182 183 185 186 186 187 189 189 189 186 181 179 178 177 179 182 184
326 327 326 327 330 333 328 298 267 255 251 242 228 218 216 218 221 222 223 223 221 218 216 215 215 216 218 220 223 224 222 217 211 211 216 216 218 224 224 220 216 212 210 210 211 217 222 220 218 216 213 211 211 210 210 211 212 210 207 203 199 199 201 200 199 198 195 190 186 184 186 188 189 189 190 190 188 184 179 177 176 178 182 184 184
321 324 324 324 323 326 332 320 285 262 251 245 237 226 219 219 220 222 223 222 221 220 220 219 216 212 212 218 225 225 222 220 216 213 214 217 221 226 225 222 217 213 210 210 210 217 224 224 220 217 216 215 214 213 212 212 213 212 206 200 198 199 200 198 196 195 195 192 189 188 188 189 191 192 191 188 185 183 182 179 179 181 184 185 183
317 319 321 322 319 319 324 327 308 275 253 242 239 233 225 223 223 223 223 223 221 219 219 220 220 217 214 214 219 220 217 215 214 215 216 217 219 225 226 223 218 214 211 212 215 219 223 224 222 218 217 217 217 217 216 214 213 211 205 199 198 198 198 196 195 195 196 195 193 192 191 190 191 193 192 188 185 184 184 183 184 184 185 185 184
313 315 317 318 317 315 316 323 318 286 257 242 236 233 229 226 226 225 224 224 224 222 220 219 218 219 219 217 215 215 213 211 212 216 218 218 219 223 227 226 220 214 212 212 216 219 221 223 222 218 216 217 219 220 219 219 217 209 201 197 197 198 198 196 194 193 195 196 196 195 194 193 193 193 193 191 188 186 184 184 185 186 187 187 188
308 311 312 313 314 312 311 317 319 296 263 247 237 232 229 226 226 226 224 225 225 224 224 222 219 218 218 219 219 217 213 211 214 220 220 219 220 224 227 227 222 217 214 213 213 215 219 222 221 217 215 216 218 221 221 221 220 211 201 197 197 198 198 197 195 193 193 195 197 197 196 197 197 196 195 192 189 188 187 186 187 187 189 191 193
303 307 306 308 310 309 306 312 316 300 267 251 239 230 227 224 223 224 224 224 224 222 222 223 223 222 218 218 220 220 218 217 219 223 222 220 223 225 225 225 224 220 216 214 214 214 217 221 221 216 213 213 216 220 222 221 219 211 204 201 200 198 197 196 195 194 194 195 197 199 199 199 198 197 195 192 190 190 190 190 190 190 193 196 195
299 302 302 303 306 305 301 307 313 301 266 249 237 227 225 223 221 223 223 224 223 220 219 220 222 224 221 218 217 218 221 223 222 223 223 223 226 227 223 222 224 222 218 214 216 218 218 221 220 215 211 211 214 218 221 222 218 211 206 203 202 201 199 198 197 197 198 198 198 200 201 201 199 198 196 195 193 192 190 192 194 195 198 201 200
297 298 298 298 300 301 297 302 310 299 264 249 238 227 224 222 221 223 224 224 224 221 221 219 218 218 219 220 219 218 221 223 220 219 220 223 226 226 221 219 222 224 220 216 216 218 219 221 219 213 209 211 215 217 219 220 216 210 206 204 203 203 202 202 202 202 202 202 202 203 203 202 201 201 200 199 196 192 192 194 195 197 200 204 205
295 293 293 293 295 297 294 298 307 297 261 247 240 229 224 222 222 224 224 223 223 221 221 222 220 218 217 218 220 221 223 223 220 217 217 220 224 223 219 218 223 226 221 217 217 218 218 221 219 212 209 211 215 217 218 217 213 208 205 203 203 204 203 202 203 204 204 205 207 209 207 205 205 204 202 200 198 196 196 195 195 196 199 202 208
291 288 288 289 292 294 291 295 305 296 258 246 238 229 226 224 222 223 223 222 222 221 220 222 223 223 222 220 220 220 222 222 220 218 216 217 219 218 217 219 224 227 223 219 219 220 220 222 220 214 212 214 216 217 216 214 209 204 202 201 202 204 203 203 203 205 207 208 210 211 210 207 206 204 201 199 198 197 197 196 196 199 201 204 210
285 282 285 288 290 291 290 294 303 294 257 244 236 228 226 225 222 222 222 222 222 221 220 222 224 225 225 224 223 223 224 225 224 224 222 219 218 217 218 219 222 224 223 220 219 220 221 222 219 215 216 218 218 217 214 210 205 202 201 201 202 204 203 203 203 205 208 211 212 213 211 208 206 203 201 201 199 196 196 198 200 203 205 208 213
277 280 286 286 286 289 288 291 301 296 260 244 236 227 226 226 223 222 222 221 221 220 220 222 225 225 224 223 223 224 226 228 228 227 226 223 220 219 218 219 219 220 220 219 218 218 221 222 218 215 216 219 219 216 211 206 202 201 200 200 202 203 203 203 204 204 206 209 210 210 209 207 206 204 203 204 204 202 202 204 205 206 208 212 216
274 283 285 281 282 288 286 287 298 297 265 246 237 228 227 226 223 223 223 222 222 221 220 221 224 226 226 225 224 226 228 229 227 225 223 221 219 218 217 217 217 217 217 217 216 217 220 220 216 215 217 219 218 214 208 203 201 201 200 200 202 202 202 202 203 204 204 206 207 208 207 206 208 208 207 207 207 208 209 210 210 211 213 216 219
277 281 279 276 280 285 281 282 294 296 269 248 238 231 228 227 225 225 225 224 224 223 221 221 223 226 227 227 227 228 229 228 225 222 222 221 220 219 218 216 215 215 214 214 214 218 219 216 213 215 218 218 216 211 205 202 201 201 201 201 202 203 202 203 203 203 203 205 206 207 207 207 208 210 211 210 211 212 213 213 213 215 216 218 222
275 274 271 275 279 280 277 277 287 292 271 246 239 233 230 229 227 225 225 225 224 223 223 223 224 226 227 227 227 227 227 226 225 224 224 223 221 219 217 215 214 213 213 214 216 216 214 211 211 215 217 217 213 208 204 202 201 201 202 203 203 204 203 203 204 204 205 206 207 207 207 209 210 211 212 212 213 214 214 215 216 218 219 221 225
267 265 268 274 275 275 274 273 280 288 272 243 236 233 230 230 229 226 225 224 223 223 223 223 224 225 226 226 226 226 227 227 227 226 225 222 220 218 217 215 214 213 213 214 215 212 209 209 212 214 214 213 209 206 203 202 202 202 203 204 205 206 205 204 204 206 207 209 210 209 210 211 212 213 214 215 216 216 217 218 221 222 224 227 230
259 261 267 273 272 272 273 271 275 282 271 239 232 232 230 229 229 228 226 224 223 222 222 222 222 224 225 226 226 226 226 227 227 226 223 220 218 218 218 217 215 214 213 212 211 210 209 209 210 211 210 209 206 204 203 202 203 204 205 206 207 208 207 206 206 208 209 211 212 213 213 213 213 214 215 217 218 219 220 223 225 227 228 230 232
259 263 267 269 270 271 273 272 273 278 270 241 227 228 229 228 227 226 225 223 222 221 221 221 220 221 222 223 224 224 224 224 225 223 221 220 219 220 220 218 215 214 213 211 209 210 211 210 209 208 208 206 204 203 203 203 204 206 206 207 209 209 209 209 209 210 211 213 214 215 215 215 215 216 218 219 220 222 224 226 228 230 231 231 232
267 267 266 268 272 273 273 272 272 275 269 244 226 225 227 227 225 224 222 221 219 218 218 219 218 218 219 220 220 220 221 222 222 222 221 220 220 220 219 217 215 214 213 212 211 211 211 209 209 208 207 205 203 203 203 205 206 208 208 209 210 211 212 212 213 213 214 214 215 216 216 217 218 219 221 222 223 225 227 228 229 231 232 232 233
280 276 274 274 275 274 272 270 272 273 266 246 229 223 224 225 224 222 220 219 218 217 218 217 217 216 216 217 217 217 218 219 220 219 220 221 221 219 217 215 215 215 214 214 213 212 212 211 210 208 206 204 203 204 205 207 208 210 211 212 213 213 215 215 216 216 216 217 217 218 218 219 221 222 223 224 225 226 227 228 230 231 232 233 234
289 284 281 278 275 273 270 268 269 271 264 246 232 223 221 223 223 221 219 217 216 216 216 215 215 215 215 216 217 216 216 217 217 218 218 218 218 217 215 213 214 216 215 215 214 215 216 215 212 209 207 205 205 206 207 208 209 211 213 215 216 216 217 217 218 218 218 218 219 220 221 221 223 223 223 224 225 225 226 229 231 232 232 234 235
290 284 279 277 274 271 268 265 267 269 260 245 235 225 220 222 222 220 218 215 213 213 214 214 213 213 212 213 214 215 215 215 215 216 215 213 212 212 212 212 213 214 215 216 217 219 220 218 214 211 208 208 208 209 210 210 210 212 214 217 218 219 220 220 220 220 220 220 220 221 221 221 222 223 223 223 224 224 226 228 230 231 231 232 234
284 279 275 273 271 268 265 263 266 265 255 242 235 225 218 219 221 221 219 216 214 212 212 212 213 213 212 211 211 212 214 215 216 216 214 210 208 208 209 211 212 213 214 216 217 219 219 217 213 210 209 210 211 211 212 212 212 213 215 217 218 220 221 222 222 221 222 221 220 220 219 219 221 222 222 222 222 223 225 227 228 228 228 230 233
278 275 272 270 268 266 263 263 263 260 251 243 236 227 220 218 219 221 222 222 221 219 216 214 214 214 212 212 212 212 213 216 217 217 215 212 210 209 208 209 211 213 214 215 214 214 214 212 210 208 208 210 212 212 213 213 214 214 216 217 217 218 220 221 221 220 220 220 220 219 219 219 220 220 220 220 220 222 225 226 226 227 228 230 234
278 273 270 267 265 264 263 262 260 254 247 241 236 229 223 221 221 221 223 224 225 226 224 223 222 220 218 218 220 220 220 220 219 218 217 215 214 213 211 210 210 211 212 212 212 211 210 209 208 208 207 209 211 213 213 212 212 213 215 216 217 218 219 220 219 218 218 218 219 219 219 219 219 219 218 218 219 222 225 225 225 226 228 231 234
282 276 272 269 266 265 263 260 257 250 243 238 233 225 220 219 221 224 226 227 227 227 227 226 227 227 226 224 223 223 224 224 223 220 218 216 215 215 214 211 210 210 210 209 208 208 209 208 208 208 209 210 211 212 213 213 214 214 214 214 216 218 219 219 218 218 218 218 218 218 218 218 218 218 219 220 222 224 225 225 225 226 228 231 233
280 276 275 273 270 267 261 256 252 245 237 231 227 220 214 211 213 217 222 226 228 228 227 225 225 226 226 225 223 222 222 222 222 219 216 214 214 215 214 213 211 210 210 209 207 208 209 209 208 208 210 211 212 213 214 215 216 215 215 214 215 217 219 219 218 218 217 217 217 217 217 217 218 219 221 224 226 226 226 226 226 227 229 230 232
281 277 278 276 270 264 257 250 243 235 227 222 219 215 210 207 206 208 212 217 222 225 224 223 222 223 224 224 225 225 223 222 222 221 217 215 214 214 213 212 212 211 210 208 208 209 209 210 210 211 211 212 213 214 215 216 215 215 214 215 216 217 217 218 217 217 218 218 217 217 217 219 222 225 228 229 230 229 227 227 228 229 230 231 232
297 286 281 276 269 262 251 239 230 223 218 215 212 209 207 207 205 205 205 207 212 216 219 219 220 222 223 224 224 225 224 224 224 223 221 217 215 213 211 209 209 210 211 210 210 210 210 210 211 212 213 213 214 214 214 215 215 215 215 216 217 217 216 216 215 216 217 216 216 218 221 225 229 231 232 232 230 229 228 228 229 229 231 232 234
348 334 318 299 279 259 238 224 218 212 209 208 206 204 204 205 205 206 205 205 205 208 212 215 216 218 220 221 222 223 224 225 223 222 220 216 213 211 207 204 204 206 209 209 209 209 209 211 212 213 214 215 215 215 215 214 214 215 215 216 216 216 216 216 215 216 216 217 219 224 228 230 231 232 232 232 231 230 230 230 230 231 232 233 235
23 18 10 352 296 239 213 206 206 204 202 202 201 201 202 203 205 206 206 205 205 206 208 211 213 213 215 218 220 221 222 224 223 220 216 212 210 208 207 205 205 206 207 208 209 210 211 212 213 213 214 214 214 215 215 215 215 215 215 216 217 218 218 217 216 217 218 221 226 229 230 230 231 231 232 233 233 233 233 233 234 234 235 237 239
48 50 46 48 87 149 167 179 189 193 194 195 196 197 198 200 202 203 203 202 203 203 204 207 207 206 208 211 214 217 218 219 219 217 213 210 209 209 209 208 207 208 208 208 209 211 213 214 214 215 215 215 215 215 215 215 216 216 216 218 219 220 219 218 219 221 224 227 230 230 229 230 231 233 234 235 235 234 235 236 238 239 240 241 243
58 63 66 75 90 105 120 133 148 165 175 180 185 189 190 191 194 197 197 199 200 200 201 204 203 202 202 202 203 206 208 208 207 206 203 203 204 204 205 205 207 209 210 211 211 213 215 216 217 219 219 218 218 218 217 217 217 217 218 218 219 218 218 220 222 226 230 232 232 231 230 232 234 236 237 239 239 239 240 241 242 243 244 245 247
57 63 68 75 81 88 96 103 110 123 135 142 153 163 169 172 175 178 182 186 189 191 193 194 195 197 198 198 196 195 195 195 195 195 195 197 199 199 199 202 205 208 211 213 215 217 219 220 220 221 221 220 220 220 220 220 220 219 219 218 217 217 219 223 228 232 234 233 232 231 233 236 238 239 241 242 243 244 245 246 247 248 249 250 250
55 60 63 68 73 78 84 88 92 97 103 110 119 128 132 138 144 151 159 164 166 169 173 176 180 185 190 194 195 194 192 191 191 192 194 196 197 197 199 205 208 208 209 211 214 215 217 218 219 220 221 221 222 223 223 224 223 221 219 218 219 222 226 231 235 236 235 233 232 233 237 240 240 241 243 244 245 247 248 249 250 250 251 252 253
54 58 60 64 68 71 75 78 80 84 89 94 99 102 105 112 119 126 133 138 142 147 152 155 158 164 174 185 193 198 199 198 195 194 195 196 196 196 200 207 211 211 211 212 212 213 213 214 216 218 219 220 222 223 224 225 223 221 221 223 227 231 235 236 237 235 233 233 235 237 239 241 241 242 243 244 245 247 248 248 249 249 249 250 251
51 56 58 60 62 65 69 73 76 78 82 85 88 91 94 99 103 108 114 117 121 129 134 133 133 135 143 160 176 185 193 196 196 195 194 196 197 200 204 210 214 216 217 217 217 216 216 216 216 218 219 221 222 223 223 223 223 226 230 234 236 237 236 235 233 233 232 233 235 236 238 240 241 241 242 243 244 245 246 246 246 246 247 248 250
51 55 56 57 61 63 66 69 71 73 75 78 82 85 89 92 95 98 102 104 106 111 115 118 122 126 132 145 159 167 171 177 182 185 186 189 194 199 205 211 217 221 223 224 224 224 223 222 222 222 223 224 224 225 226 228 233 237 239 238 236 234 233 233 233 233 233 234 235 237 238 239 238 238 239 240 241 241 242 243 243 244 246 248 250
52 55 56 58 61 62 64 66 69 72 74 77 80 82 84 87 90 91 93 95 97 100 103 107 113 119 126 135 147 154 158 163 168 173 177 182 188 193 200 206 212 217 220 222 222 223 224 224 225 226 226 226 227 228 231 234 236 237 237 235 234 234 234 234 235 235 235 236 237 238 237 235 235 236 237 238 239 239 240 241 243 244 247 249 250
52 54 57 59 61 63 65 67 69 73 75 77 78 80 82 85 87 88 89 92 94 96 99 103 108 112 118 126 134 141 146 152 157 163 169 175 181 187 194 201 206 211 214 215 216 217 218 220 221 223 224 225 226 228 230 230 229 228 229 231 233 234 235 236 237 237 238 238 237 236 234 234 234 236 237 238 240 241 242 244 245 247 248 250 252
53 55 57 59 61 63 65 67 69 72 73 75 77 79 80 83 85 88 89 91 94 97 99 102 105 108 112 117 121 126 132 138 142 146 154 163 171 177 184 191 197 201 203 204 205 207 208 210 214 216 218 220 221 222 222 222 222 223 224 226 228 230 232 232 233 232 231 230 229 229 230 232 234 237 240 242 243 244 245 246 247 248 249 251 253
55 56 58 60 62 63 65 67 70 71 72 74 76 78 79 81 83 85 86 87 91 94 97 99 102 103 106 109 111 114 117 122 126 128 131 137 144 152 160 169 176 180 182 184 187 191 194 197 202 205 208 211 212 213 214 216 217 219 222 223 225 226 226 225 223 222 222 223 226 229 233 237 241 244 246 246 246 246 247 248 249 250 251 253 254
54 56 58 60 62 63 64 66 67 69 71 73 75 76 78 79 81 82 82 83 84 87 89 93 95 97 98 101 103 106 109 113 115 118 120 121 123 127 134 142 148 152 158 162 165 170 175 179 185 190 195 199 202 206 209 212 215 218 220 222 223 224 224 224 224 225 226 230 235 239 243 247 249 250 250 250 249 250 250 250 250 250 250 250 251
52 55 56 58 60 62 63 64 65 67 68 71 72 74 75 76 76 78 79 79 80 80 81 83 86 87 89 91 93 96 100 103 105 107 109 111 112 115 118 123 128 133 140 147 150 154 161 168 174 182 189 195 201 206 210 214 217 219 222 224 225 228 230 231 233 235 238 241 245 248 250 252 252 252 252 252 251 250 250 249 249 249 249 249 250
51 53 54 56 58 60 61 63 64 65 66 67 69 70 71 71 72 73 74 75 76 76 75 76 78 79 80 82 83 84 86 88 89 91 93 95 97 101 104 109 116 122 130 139 147 156 167 177 186 195 201 208 213 217 220 224 226 227 230 233 235 237 239 241 243 245 247 249 251 252 252 252 252 251 250 249 249 249 249 249 250 251 251 252 253
52 53 54 55 56 56 57 58 60 60 62 63 64 65 66 67 67 68 68 69 70 70 70 71 72 73 74 75 75 76 77 77 77 77 78 79 79 79 80 82 87 91 98 116 137 163 188 203 213 220 223 226 230 232 234 236 237 238 240 241 242 244 246 248 250 251 252 253 253 254 254 253 252 251 250 249 249 249 249 250 250 252 253 254 255